| time (UTC) | temp C | wind direction | speed KPH | gust KPH | rain 1hr cm | rain 24hr cm | rain mn cm | humidity % | barometer mb |
| 20260510013003 | 12 | 350 | 19.3 | 37.0 | 0.00 | 0.00 | 0.00 | 35 | 1014.1 |
| 20260510012003 | 12 | 9 | 14.5 | 32.2 | 0.00 | 0.00 | 0.00 | 34 | 1013.6 |
| 20260510011003 | 12 | 17 | 11.3 | 24.1 | 0.00 | 0.00 | 0.00 | 34 | 1013.5 |
| 20260510010003 | 13 | 11 | 11.3 | 20.9 | 0.00 | 0.00 | 0.00 | 33 | 1013.2 |
| 20260510005003 | 13 | 345 | 9.7 | 20.9 | 0.00 | 0.00 | 0.00 | 32 | 1012.9 |
| 20260510004003 | 13 | 1 | 9.7 | 27.4 | 0.00 | 0.00 | 0.00 | 31 | 1012.8 |
| 20260510003003 | 14 | 337 | 14.5 | 33.8 | 0.00 | 0.00 | 0.00 | 31 | 1012.5 |
| 20260510002003 | 14 | 338 | 14.5 | 27.4 | 0.00 | 0.00 | 0.00 | 30 | 1012.5 |
| 20260510001003 | 15 | 17 | 9.7 | 29.0 | 0.00 | 0.00 | 0.00 | 31 | 1012.3 |
| 20260510000003 | 15 | 336 | 8.0 | 25.7 | 0.00 | 0.00 | 0.00 | 30 | 1011.9 |
| 20260509235003 | 15 | 317 | 9.7 | 25.7 | 0.00 | 0.00 | 0.00 | 30 | 1011.8 |
| 20260509234002 | 15 | 338 | 16.1 | 33.8 | 0.00 | 0.00 | 0.00 | 29 | 1011.4 |
| 20260509233003 | 15 | 18 | 8.0 | 25.7 | 0.00 | 0.00 | 0.00 | 29 | 1011.1 |
| 20260509232003 | 16 | 353 | 12.9 | 20.9 | 0.00 | 0.00 | 0.00 | 28 | 1011.3 |
| 20260509225003 | 15 | 310 | 14.5 | 33.8 | 0.00 | 0.00 | 0.00 | 30 | 1010.7 |
| 20260509224003 | 16 | 307 | 17.7 | 37.0 | 0.00 | 0.00 | 0.00 | 28 | 1010.6 |
| 20260509223003 | 15 | 310 | 8.0 | 25.7 | 0.00 | 0.00 | 0.00 | 30 | 1010.4 |
| 20260509222004 | 15 | 285 | 16.1 | 33.8 | 0.00 | 0.00 | 0.00 | 30 | 1010.4 |
| 20260509221003 | 15 | 303 | 11.3 | 24.1 | 0.00 | 0.00 | 0.00 | 31 | 1010.1 |
| 20260509220003 | 15 | 337 | 14.5 | 24.1 | 0.00 | 0.00 | 0.00 | 32 | 1010.0 |
| 20260509214003 | 16 | 323 | 11.3 | 29.0 | 0.00 | 0.00 | 0.00 | 32 | 1009.8 |
| 20260509213003 | 16 | 294 | 14.5 | 33.8 | 0.00 | 0.00 | 0.00 | 33 | 1009.5 |
| 20260509212003 | 15 | 291 | 19.3 | 40.2 | 0.00 | 0.00 | 0.00 | 33 | 1009.6 |
| 20260509211003 | 16 | 313 | 17.7 | 38.6 | 0.00 | 0.00 | 0.00 | 34 | 1009.6 |
| 20260509210004 | 15 | 332 | 17.7 | 37.0 | 0.00 | 0.00 | 0.00 | 33 | 1009.3 |
| 20260509205003 | 15 | 320 | 17.7 | 35.4 | 0.00 | 0.00 | 0.00 | 38 | 1009.3 |
| 20260509204003 | 15 | 302 | 16.1 | 33.8 | 0.00 | 0.00 | 0.00 | 38 | 1009.0 |
| 20260509203003 | 15 | 313 | 19.3 | 45.1 | 0.00 | 0.00 | 0.00 | 39 | 1009.0 |
| 20260509202003 | 15 | 332 | 19.3 | 33.8 | 0.00 | 0.00 | 0.00 | 39 | 1008.9 |
| 20260509200003 | 15 | 298 | 11.3 | 35.4 | 0.00 | 0.00 | 0.00 | 40 | 1008.6 |
| 20260509195003 | 15 | 297 | 20.9 | 41.8 | 0.00 | 0.00 | 0.00 | 41 | 1008.6 |
| 20260509194003 | 15 | 341 | 14.5 | 40.2 | 0.00 | 0.00 | 0.00 | 42 | 1008.5 |
| 20260509193003 | 15 | 308 | 14.5 | 40.2 | 0.00 | 0.00 | 0.00 | 42 | 1008.3 |
| 20260509191003 | 14 | 289 | 14.5 | 33.8 | 0.00 | 0.00 | 0.00 | 46 | 1008.4 |
| 20260509190003 | 15 | 287 | 20.9 | 32.2 | 0.00 | 0.00 | 0.00 | 45 | 1008.1 |
| 20260509184003 | 14 | 280 | 16.1 | 35.4 | 0.00 | 0.00 | 0.00 | 47 | 1008.1 |
| 20260509183003 | 15 | 282 | 9.7 | 41.8 | 0.00 | 0.00 | 0.00 | 48 | 1007.7 |
| 20260509181003 | 14 | 324 | 11.3 | 32.2 | 0.00 | 0.00 | 0.00 | 52 | 1007.7 |
| 20260509180003 | 13 | 254 | 11.3 | 40.2 | 0.00 | 0.00 | 0.00 | 53 | 1007.5 |
| 20260509175003 | 15 | 264 | 14.5 | 27.4 | 0.00 | 0.00 | 0.00 | 51 | 1007.7 |
| 20260509174003 | 13 | 308 | 14.5 | 27.4 | 0.00 | 0.00 | 0.00 | 55 | 1007.8 |
| 20260509173003 | 14 | 289 | 20.9 | 38.6 | 0.00 | 0.00 | 0.00 | 57 | 1007.5 |
| 20260509172003 | 13 | 232 | 14.5 | 41.8 | 0.00 | 0.00 | 0.00 | 57 | 1007.5 |
| 20260509171003 | 13 | 234 | 14.5 | 37.0 | 0.00 | 0.00 | 0.00 | 59 | 1007.6 |
| 20260509170003 | 12 | 302 | 14.5 | 37.0 | 0.00 | 0.00 | 0.00 | 61 | 1007.6 |
| 20260509165003 | 12 | 260 | 17.7 | 35.4 | 0.00 | 0.00 | 0.00 | 61 | 1007.4 |
| 20260509163003 | 12 | 297 | 16.1 | 33.8 | 0.00 | 0.00 | 0.00 | 61 | 1007.2 |
| 20260509161003 | 12 | 274 | 9.7 | 33.8 | 0.00 | 0.00 | 0.00 | 61 | 1007.4 |
| 20260509160003 | 11 | 297 | 19.3 | 32.2 | 0.00 | 0.00 | 0.00 | 62 | 1007.4 |
| 20260509155003 | 11 | 294 | 12.9 | 29.0 | 0.00 | 0.00 | 0.00 | 62 | 1007.0 |
| 20260509154003 | 11 | 288 | 12.9 | 29.0 | 0.00 | 0.00 | 0.00 | 60 | 1007.1 |
| 20260509153004 | 11 | 306 | 6.4 | 24.1 | 0.00 | 0.00 | 0.00 | 61 | 1007.0 |
| 20260509152003 | 11 | 318 | 11.3 | 27.4 | 0.00 | 0.00 | 0.00 | 57 | 1006.7 |
| 20260509151004 | 12 | 318 | 8.0 | 20.9 | 0.00 | 0.00 | 0.00 | 51 | 1006.8 |
| 20260509150003 | 12 | 16 | 6.4 | 22.5 | 0.00 | 0.00 | 0.00 | 51 | 1006.7 |
| 20260509145003 | 12 | 314 | 8.0 | 22.5 | 0.00 | 0.00 | 0.00 | 51 | 1006.5 |
| 20260509144003 | 11 | 245 | 8.0 | 16.1 | 0.00 | 0.00 | 0.00 | 51 | 1006.8 |
| 20260509143003 | 11 | 287 | 11.3 | 20.9 | 0.00 | 0.00 | 0.00 | 50 | 1006.6 |
| 20260509142003 | 11 | 295 | 8.0 | 14.5 | 0.00 | 0.00 | 0.00 | 50 | 1006.7 |
| 20260509140003 | 11 | 271 | 4.8 | 22.5 | 0.00 | 0.00 | 0.00 | 51 | 1006.5 |
| 20260509135003 | 11 | 277 | 3.2 | 25.7 | 0.00 | 0.00 | 0.00 | 51 | 1006.5 |
| 20260509134003 | 11 | 266 | 9.7 | 19.3 | 0.00 | 0.00 | 0.00 | 51 | 1006.1 |
| 20260509133004 | 11 | 354 | 4.8 | 12.9 | 0.00 | 0.00 | 0.00 | 53 | 1006.2 |
| 20260509132003 | 11 | 266 | 8.0 | 16.1 | 0.00 | 0.00 | 0.00 | 54 | 1005.9 |
| 20260509131003 | 11 | 249 | 4.8 | 9.7 | 0.00 | 0.00 | 0.00 | 54 | 1005.7 |
| 20260509130002 | 11 | 191 | 6.4 | 12.9 | 0.00 | 0.00 | 0.00 | 54 | 1005.5 |
| 20260509125003 | 11 | 222 | 4.8 | 9.7 | 0.00 | 0.00 | 0.00 | 54 | 1005.4 |
| 20260509123003 | 11 | 195 | 3.2 | 9.7 | 0.00 | 0.00 | 0.00 | 56 | 1005.0 |
| 20260509122003 | 11 | 191 | 4.8 | 8.0 | 0.00 | 0.00 | 0.00 | 56 | 1005.1 |
| 20260509121003 | 11 | 144 | 4.8 | 8.0 | 0.00 | 0.00 | 0.00 | 56 | 1004.4 |
| 20260509120003 | 11 | 79 | 4.8 | 8.0 | 0.00 | 0.00 | 0.00 | 56 | 1003.9 |
| 20260509115003 | 11 | 225 | 3.2 | 9.7 | 0.00 | 0.00 | 0.00 | 56 | 1004.2 |
| 20260509114003 | 11 | 240 | 3.2 | 12.9 | 0.00 | 0.00 | 0.00 | 56 | 1003.9 |
| 20260509113003 | 11 | 276 | 6.4 | 14.5 | 0.00 | 0.00 | 0.00 | 56 | 1003.8 |
| 20260509112003 | 11 | 180 | 3.2 | 9.7 | 0.00 | 0.00 | 0.00 | 58 | 1003.7 |
| 20260509111003 | 10 | 352 | 4.8 | 11.3 | 0.00 | 0.00 | 0.00 | 59 | 1003.3 |
| 20260509110003 | 10 | 18 | 3.2 | 9.7 | 0.00 | 0.00 | 0.00 | 64 | 1003.3 |
| 20260509105003 | 10 | 187 | 4.8 | 11.3 | 0.00 | 0.00 | 0.00 | 65 | 1003.1 |
| 20260509104003 | 10 | 146 | 4.8 | 16.1 | 0.00 | 0.00 | 0.00 | 68 | 1002.9 |
| 20260509103003 | 10 | 217 | 6.4 | 12.9 | 0.00 | 0.00 | 0.00 | 70 | 1002.7 |
| 20260509102003 | 10 | 173 | 6.4 | 9.7 | 0.00 | 0.00 | 0.00 | 72 | 1002.6 |
| 20260509101004 | 10 | 187 | 3.2 | 12.9 | 0.00 | 0.00 | 0.00 | 74 | 1002.7 |
| 20260509100003 | 10 | 180 | 4.8 | 12.9 | 0.00 | 0.00 | 0.00 | 73 | 1002.8 |
| 20260509095003 | 10 | 206 | 6.4 | 14.5 | 0.00 | 0.00 | 0.00 | 72 | 1002.9 |
| 20260509094003 | 10 | 193 | 8.0 | 12.9 | 0.00 | 0.00 | 0.00 | 72 | 1002.2 |
| 20260509092003 | 11 | 151 | 6.4 | 11.3 | 0.00 | 0.00 | 0.00 | 70 | 1002.4 |
| 20260509091003 | 11 | 185 | 6.4 | 9.7 | 0.00 | 0.00 | 0.00 | 69 | 1002.6 |
| 20260509085003 | 11 | 174 | 8.0 | 11.3 | 0.00 | 0.00 | 0.00 | 68 | 1002.6 |
| 20260509084003 | 10 | 158 | 3.2 | 8.0 | 0.00 | 0.00 | 0.00 | 68 | 1002.7 |
| 20260509083003 | 10 | 124 | 4.8 | 8.0 | 0.00 | 0.00 | 0.00 | 68 | 1002.7 |
| 20260509082003 | 10 | 110 | 4.8 | 4.8 | 0.00 | 0.00 | 0.00 | 68 | 1002.9 |
| 20260509081004 | 10 | 104 | 4.8 | 8.0 | 0.00 | 0.00 | 0.00 | 67 | 1003.0 |
| 20260509080003 | 10 | 119 | 4.8 | 9.7 | 0.00 | 0.00 | 0.00 | 66 | 1002.9 |
| 20260509075003 | 10 | 99 | 4.8 | 8.0 | 0.00 | 0.00 | 0.00 | 66 | 1003.1 |
| 20260509074004 | 10 | 117 | 3.2 | 8.0 | 0.00 | 0.00 | 0.00 | 65 | 1003.3 |
| 20260509072003 | 11 | 123 | 4.8 | 9.7 | 0.00 | 0.00 | 0.00 | 63 | 1003.5 |
| 20260509071003 | 11 | 138 | 4.8 | 9.7 | 0.00 | 0.00 | 0.00 | 62 | 1003.7 |
| 20260509063004 | 11 | 126 | 8.0 | 9.7 | 0.00 | 0.00 | 0.00 | 56 | 1004.1 |
| 20260509062003 | 12 | 140 | 8.0 | 11.3 | 0.00 | 0.00 | 0.00 | 55 | 1004.4 |
| 20260509061003 | 12 | 116 | 8.0 | 11.3 | 0.00 | 0.00 | 0.00 | 55 | 1004.5 |
| 20260509060003 | 12 | 108 | 6.4 | 11.3 | 0.00 | 0.00 | 0.00 | 54 | 1004.8 |
| 20260509055003 | 12 | 115 | 6.4 | 11.3 | 0.00 | 0.00 | 0.00 | 53 | 1005.1 |
| 20260509054003 | 12 | 114 | 6.4 | 12.9 | 0.00 | 0.00 | 0.00 | 51 | 1005.3 |
| 20260509053004 | 12 | 131 | 6.4 | 14.5 | 0.00 | 0.00 | 0.00 | 51 | 1005.2 |
| 20260509052003 | 12 | 88 | 4.8 | 22.5 | 0.00 | 0.00 | 0.00 | 51 | 1005.3 |
| 20260509051003 | 12 | 87 | 6.4 | 8.0 | 0.00 | 0.00 | 0.00 | 53 | 1005.4 |
| 20260509050003 | 12 | 54 | 3.2 | 9.7 | 0.00 | 0.00 | 0.00 | 51 | 1005.6 |
| 20260509045004 | 12 | 139 | 4.8 | 11.3 | 0.00 | 0.00 | 0.00 | 52 | 1005.6 |
| 20260509044003 | 12 | 112 | 6.4 | 9.7 | 0.00 | 0.00 | 0.00 | 56 | 1005.8 |
| 20260509043003 | 12 | 212 | 6.4 | 11.3 | 0.00 | 0.00 | 0.00 | 54 | 1005.7 |
| 20260509041003 | 12 | 61 | 4.8 | 8.0 | 0.00 | 0.00 | 0.00 | 50 | 1006.1 |
| 20260509040004 | 13 | 105 | 1.6 | 9.7 | 0.00 | 0.00 | 0.00 | 49 | 1006.4 |
| 20260509034004 | 12 | 199 | 3.2 | 9.7 | 0.00 | 0.00 | 0.00 | 47 | 1006.5 |
| 20260509033003 | 12 | 98 | 3.2 | 8.0 | 0.00 | 0.00 | 0.00 | 47 | 1006.6 |
| 20260509032003 | 12 | 119 | 4.8 | 8.0 | 0.00 | 0.00 | 0.00 | 47 | 1006.6 |
| 20260509031004 | 12 | 121 | 4.8 | 9.7 | 0.00 | 0.00 | 0.00 | 47 | 1006.5 |
| 20260509030004 | 12 | 134 | 4.8 | 9.7 | 0.00 | 0.00 | 0.00 | 46 | 1006.6 |
| 20260509025003 | 12 | 117 | 4.8 | 16.1 | 0.00 | 0.00 | 0.00 | 45 | 1006.7 |
| 20260509024003 | 13 | 123 | 9.7 | 14.5 | 0.00 | 0.00 | 0.00 | 44 | 1006.8 |
| 20260509023003 | 13 | 100 | 6.4 | 9.7 | 0.00 | 0.00 | 0.00 | 45 | 1006.7 |
| 20260509022003 | 14 | 115 | 4.8 | 11.3 | 0.00 | 0.00 | 0.00 | 43 | 1006.6 |
| 20260509021003 | 15 | 102 | 4.8 | 8.0 | 0.00 | 0.00 | 0.00 | 40 | 1006.7 |
| 20260509020003 | 16 | 115 | 4.8 | 8.0 | 0.00 | 0.00 | 0.00 | 36 | 1006.7 |
| 20260509015004 | 17 | 13 | 1.6 | 9.7 | 0.00 | 0.00 | 0.00 | 34 | 1007.1 |
| 20260509014004 | 17 | 199 | 4.8 | 25.7 | 0.00 | 0.00 | 0.00 | 32 | 1007.3 |